Volk, WI

4:07 PM CDT on April 23, 2017 (GMT -0500)
Volk

Weather History for KVOK - December, 2013

Change the Weather History Date:

Wednesday, December 18, 2013

  Actual Average Record
Temperature  
Mean Temperature 18 °F -  
Max Temperature 35 °F 25 °F 53 °F (2002)
Min Temperature 0 °F 13 °F -14 °F (2016)
Degree Days  
Heating Degree Days 48    
Moisture  
Dew Point 13 °F    
Average Humidity 74    
Maximum Humidity 90    
Minimum Humidity 48    
Precipitation  
Precipitation 0.00 in - - ()
Snow  
Snow 0.00 in - - ()
Snow Depth 2.00 in    
Sea Level Pressure  
Sea Level Pressure 29.90 in    
Wind  
Wind Speed 6 mph (SSW)    
Max Wind Speed 10 mph    
Max Gust Speed 22 mph    
Visibility 10 miles    
Events      
Averages and records for this station are not official NWS values.
T = Trace of Precipitation, MM = Missing Value Source: NWS Daily Summary

Daily Weather History Graph

Daily Weather History Graph

Search for Another Location

Airport or City:

Trip Planner

Search our weather history database for the weather conditions in past years. The results will help you decide how hot, cold, wet, or windy it might be!

Date:

Astronomy

Dec. 18, 2013 Rise Set
Actual Time 7:30 AM CST 4:24 PM CST
Civil Twilight 6:57 AM CST 4:58 PM CST
Nautical Twilight 6:21 AM CST 5:34 PM CST
Astronomical Twilight 5:46 AM CST 6:09 PM CST
Moon 5:59 PM CST (12/18) 8:07 AM CST (12/18)
Length of Visible Light 10h 00m
Length of Day
8h 54m
Full, 98% of the Moon is Illuminated
Dec 18
Full
Dec 25
Last Quarter
Jan 1
New
Jan 7
First Quarter
Jan 15
Full

Hourly Weather History & Observations

Time (CST) Temp. Windchill Dew Point Humidity Pressure Visibility Wind Dir Wind Speed Gust Speed Precip Events Conditions
12:58 AM 8.2 °F -4.1 °F 2.7 °F 78% 30.11 in 10.0 mi West 8.1 mph - N/A   Clear
1:58 AM 7.2 °F -1.5 °F 1.4 °F 77% 30.11 in 10.0 mi West 4.6 mph - N/A   Clear
2:58 AM 3.2 °F - 0.3 °F 88% 30.13 in 10.0 mi West 2.3 mph - N/A   Mostly Cloudy
3:58 AM 2.3 °F - -0.4 °F 88% 30.12 in 10.0 mi Calm Calm - N/A   Clear
4:58 AM -0.2 °F - -2.6 °F 90% 30.11 in 10.0 mi East 2.3 mph - N/A   Clear
5:58 AM 4.8 °F - 1.8 °F 87% 30.09 in 10.0 mi ESE 2.3 mph - N/A   Overcast
6:58 AM 8.6 °F 2.0 °F 5.0 °F 85% 30.07 in 10.0 mi ESE 3.5 mph - N/A   Mostly Cloudy
7:58 AM 8.6 °F -2.6 °F 5.0 °F 85% 30.04 in 10.0 mi SE 6.9 mph - N/A   Mostly Cloudy
8:58 AM 14.0 °F 2.0 °F 8.6 °F 79% 30.01 in 10.0 mi SE 9.2 mph - N/A   Mostly Cloudy
9:58 AM 17.6 °F 7.3 °F 10.4 °F 73% 30.00 in 10.0 mi ESE 8.1 mph - N/A   Mostly Cloudy
10:58 AM 21.2 °F 11.7 °F 12.2 °F 68% 29.94 in 10.0 mi SE 8.1 mph - N/A   Mostly Cloudy
11:58 AM 28.4 °F 20.4 °F 14.0 °F 55% 29.87 in 10.0 mi SSE 8.1 mph - N/A   Mostly Cloudy
12:58 PM 32.0 °F 23.6 °F 14.0 °F 48% 29.81 in 10.0 mi SSE 10.4 mph 21.9 mph N/A   Mostly Cloudy
1:58 PM 33.8 °F 27.7 °F 17.6 °F 52% 29.78 in 10.0 mi SSW 6.9 mph - N/A   Mostly Cloudy
2:58 PM 35.6 °F 28.0 °F 19.4 °F 52% 29.75 in 10.0 mi SSW 10.4 mph - N/A   Mostly Cloudy
3:58 PM 32.0 °F 26.4 °F 17.6 °F 55% 29.75 in 10.0 mi South 5.8 mph - N/A   Mostly Cloudy
4:58 PM 28.4 °F 23.3 °F 17.6 °F 64% 29.73 in 10.0 mi SSE 4.6 mph - N/A   Partly Cloudy
5:58 PM 33.8 °F 26.4 °F 23.0 °F 65% 29.74 in 10.0 mi SW 9.2 mph - N/A   Partly Cloudy
6:58 PM 30.2 °F 26.7 °F 23.0 °F 75% 29.75 in 10.0 mi WSW 3.5 mph - N/A   Mostly Cloudy
7:58 PM 32.0 °F 27.5 °F 23.0 °F 69% 29.75 in 10.0 mi SW 4.6 mph - N/A   Scattered Clouds
8:58 PM 32.0 °F 26.4 °F 24.8 °F 75% 29.73 in 10.0 mi WSW 5.8 mph - N/A   Mostly Cloudy
9:58 PM 32.0 °F 26.4 °F 26.6 °F 80% 29.75 in 10.0 mi West 5.8 mph - N/A   Mostly Cloudy
10:58 PM 30.2 °F 22.6 °F 26.6 °F 86% 29.77 in 10.0 mi West 8.1 mph - N/A   Mostly Cloudy
11:58 PM 27.1 °F 19.7 °F 24.6 °F 90% 29.79 in 10.0 mi West 6.9 mph - N/A   Clear